Lapse_Rate
9.4 9.4 9.4 9.4 9.3 9.0 8.9 9.1 9.0 8.6 8.5 8.5 8.4 8.4 8.6 8.6 8.4 8.3 8.2 8.0 7.9 7.7 7.7 7.9 7.8 7.4 7.1 6.9 6.8 6.4 6.2 5.9 6.4 6.3 6.6 6.5 6.7 6.5 6.4 6.4 6.2 6.1 5.9 5.9
9.2 9.2 9.2 9.1 9.1 9.1 9.1 9.3 8.7 8.5 8.9 8.7 8.7 8.6 8.6 8.3 8.1 8.0 7.8 7.8 7.8 7.7 8.0 8.1 7.8 7.5 7.2 7.0 6.8 6.7 6.5 6.3 6.1 6.4 6.5 6.5 6.6 6.5 6.3 6.2 6.2 6.1 6.2 6.1
9.1 8.9 9.0 9.0 9.1 9.0 9.0 8.8 8.6 8.5 8.7 8.7 8.6 8.0 8.1 8.0 8.0 7.9 7.9 7.9 7.8 7.9 7.8 7.6 7.4 7.4 7.3 7.1 7.1 6.9 6.8 6.6 6.4 6.4 6.1 6.1 6.2 6.2 6.2 6.3 6.3 6.4 6.4 6.4
9.2 8.9 8.8 9.0 8.9 8.6 8.7 8.5 8.4 8.4 8.5 8.3 8.1 7.8 7.4 7.7 7.9 7.9 7.8 7.7 7.5 7.4 7.2 7.1 7.1 7.2 7.0 7.1 6.7 6.6 6.6 6.5 6.5 6.5 6.7 6.8 6.8 6.7 6.7 6.7 6.7 6.6 6.6 6.4
8.6 8.6 8.7 8.6 8.6 8.4 8.3 8.3 8.3 8.3 8.3 8.1 7.8 7.7 7.2 7.3 7.4 7.7 7.5 7.2 7.1 7.1 6.9 7.1 7.3 7.3 7.0 6.9 6.9 6.7 6.8 7.0 7.0 6.7 6.5 6.7 6.7 6.6 6.6 6.4 6.3 6.0 5.5 5.2
8.7 8.6 8.6 8.4 8.3 8.1 8.1 8.1 8.1 8.0 7.8 7.1 7.4 7.5 6.9 7.6 7.9 7.6 7.3 7.2 7.0 6.9 6.9 7.1 7.1 7.1 6.5 6.5 6.5 6.4 6.8 6.9 6.9 6.5 6.7 6.5 6.4 6.4 6.3 5.9 5.4 5.1 5.0 4.8
8.3 8.3 8.3 8.1 7.9 7.8 7.8 7.8 7.5 6.8 6.0 5.8 7.1 6.8 7.1 7.2 7.4 7.1 7.2 7.3 7.0 7.0 7.0 6.7 6.8 6.9 6.6 6.5 6.1 6.7 6.8 6.8 6.5 6.4 6.3 6.1 5.9 5.7 5.5 5.3 5.0 4.9 4.9 4.8
8.2 8.0 8.0 7.9 7.9 7.9 7.8 7.8 7.7 7.0 5.4 6.0 6.8 6.5 7.1 7.2 7.0 6.9 7.0 6.9 6.9 6.7 6.8 7.0 7.0 6.2 6.6 6.5 6.3 6.3 6.4 6.5 6.2 6.1 6.0 6.0 5.7 5.4 5.3 5.2 5.0 4.8 4.8 4.6
8.1 7.9 7.9 8.0 7.8 7.8 7.7 7.6 7.5 7.2 6.3 6.2 6.5 6.4 6.7 7.0 6.7 6.7 6.7 6.8 6.7 6.8 7.0 6.9 6.7 6.5 6.5 6.7 6.7 6.6 6.4 6.0 5.8 5.8 5.8 5.8 5.7 5.5 5.2 5.1 5.0 4.8 4.6 4.5
8.0 7.8 7.7 7.6 7.7 7.7 7.6 7.5 7.3 7.2 5.7 6.2 6.0 6.1 6.7 6.8 6.7 6.5 6.5 6.4 6.5 6.5 6.6 6.6 6.6 6.6 6.6 6.6 6.3 6.0 5.9 5.8 5.7 5.8 6.0 5.9 5.5 5.2 4.9 4.7 4.5 4.4 4.3 4.1
8.1 8.1 7.7 7.6 7.5 7.5 7.3 7.3 7.3 7.1 6.8 5.1 4.1 6.2 6.8 6.6 6.6 6.6 6.5 6.3 6.3 6.3 6.4 6.4 6.5 6.5 6.4 6.3 6.2 6.2 6.1 5.9 5.8 6.0 5.8 5.5 5.1 4.9 4.6 4.3 4.1 3.9 3.7 3.5
8.0 7.8 7.5 7.5 7.5 7.5 7.4 7.3 7.3 7.4 6.6 6.5 6.1 6.5 6.6 6.5 6.6 6.3 6.2 6.1 6.2 6.4 6.4 6.2 6.1 6.0 5.9 6.0 6.1 6.1 6.1 6.0 5.9 5.8 5.4 5.1 4.9 4.6 4.1 3.9 3.8 3.8 3.5 3.6
7.7 7.5 7.3 7.1 7.2 7.3 7.3 7.4 7.4 7.1 6.8 6.7 5.1 6.8 6.8 6.7 6.6 6.3 6.1 6.1 6.2 6.0 5.8 5.8 5.8 5.9 5.9 5.9 5.9 5.9 6.1 5.9 5.7 5.5 5.2 4.9 4.5 4.2 4.2 4.2 4.1 4.0 4.0 4.0
7.5 7.6 7.6 7.6 7.7 7.6 7.3 7.4 7.3 7.0 6.7 6.7 6.9 6.9 6.7 6.6 6.4 6.3 6.2 6.2 6.0 5.8 5.8 5.8 5.9 6.0 5.8 5.8 6.0 6.1 6.0 5.8 5.6 5.2 5.0 4.8 4.6 4.6 4.5 4.3 4.2 4.2 4.1 4.4
7.3 7.3 7.4 7.5 7.5 7.4 7.4 7.2 7.1 6.9 6.8 6.5 7.1 6.8 6.7 6.4 6.3 6.2 6.2 6.1 6.1 6.1 6.0 6.0 6.0 5.7 5.9 6.0 5.7 5.8 5.7 5.6 5.5 5.3 5.0 4.9 4.8 4.6 4.5 4.4 4.4 4.4 4.4 4.6
7.3 7.3 7.3 7.2 7.3 7.2 7.2 7.0 7.1 7.1 6.9 6.8 6.9 7.3 7.1 6.7 6.5 6.5 6.5 6.3 6.2 6.2 6.1 6.0 5.7 6.0 6.0 5.8 5.9 5.9 5.8 5.7 5.3 5.2 5.1 4.8 4.6 4.6 4.5 4.5 4.5 4.4 4.7 5.0
7.3 7.2 7.2 7.0 7.2 7.0 6.6 7.7 7.8 7.7 7.5 7.2 7.1 7.4 6.7 6.6 6.4 6.5 6.4 6.4 6.1 6.0 6.0 6.0 6.0 6.0 5.9 5.9 5.9 5.8 5.6 5.5 5.3 5.1 4.7 4.6 4.7 4.7 4.5 4.4 4.6 4.9 5.2 5.7
7.1 7.1 7.0 6.9 6.7 4.3 7.3 7.6 7.6 7.7 7.6 7.3 7.2 6.9 6.5 6.4 6.2 6.3 6.3 6.2 6.0 5.9 5.9 6.1 6.1 6.0 6.0 5.8 5.8 5.7 5.5 5.3 5.0 4.9 4.8 4.8 4.8 4.6 4.6 4.9 5.0 5.2 5.8 6.3
6.9 6.8 6.8 6.7 6.3 6.7 7.3 7.5 7.8 7.7 7.5 7.1 6.9 6.7 6.6 6.4 6.2 6.4 6.2 6.1 5.8 5.9 6.1 6.1 5.9 5.8 5.6 5.6 5.6 5.5 5.3 5.1 5.0 5.0 4.9 4.8 4.7 4.8 5.0 5.1 5.4 5.8 6.3 6.7
6.8 6.6 6.4 6.3 5.9 3.2 7.1 7.5 7.5 7.3 6.6 7.3 7.0 6.8 6.7 6.4 6.1 6.4 6.0 6.0 6.0 6.1 6.1 5.8 5.6 5.5 5.5 5.5 5.5 5.4 5.3 5.2 5.1 5.0 4.8 4.8 5.1 5.3 5.2 5.4 5.8 6.2 6.6 6.8
7.0 6.8 6.4 6.0 5.7 5.9 6.9 7.1 7.1 6.5 7.1 6.6 6.7 6.6 6.5 6.3 6.0 6.1 6.1 6.2 6.2 5.9 5.8 5.4 5.3 5.3 5.4 5.5 5.4 5.4 5.3 5.2 5.0 4.9 4.8 5.1 5.4 5.4 5.5 6.0 6.3 6.5 6.7 6.8
6.6 6.6 6.6 6.2 5.6 5.8 7.1 7.0 6.9 7.0 6.7 6.6 6.4 6.3 6.2 5.9 5.8 5.8 5.8 6.0 5.8 5.6 5.5 5.1 5.2 5.4 5.4 5.4 5.4 5.4 5.3 5.2 5.1 5.0 5.0 5.3 5.4 5.8 6.0 6.5 6.6 6.9 6.9 7.0
6.0 6.5 6.5 6.6 7.0 7.0 6.8 6.7 6.6 6.6 6.4 6.3 6.2 6.2 6.1 5.9 6.0 5.8 5.8 5.8 5.7 5.3 5.0 5.0 5.3 5.4 5.5 5.4 5.4 5.5 5.3 5.3 5.1 5.1 5.3 5.4 5.7 6.3 6.5 6.8 6.9 7.1 7.0 7.1
6.5 6.5 6.3 6.4 7.0 6.9 6.6 6.4 6.4 6.3 6.1 6.0 6.0 6.0 6.0 5.9 5.8 5.8 5.9 5.8 5.4 5.0 4.8 5.1 5.3 5.4 5.4 5.5 5.5 5.4 5.4 5.3 5.2 5.3 5.4 5.8 6.2 6.5 6.7 7.0 7.2 7.2 7.2 7.2
6.4 6.7 6.6 6.3 6.7 6.4 6.5 6.5 6.4 6.3 6.2 6.1 6.0 6.0 5.9 5.9 6.0 6.0 5.7 5.3 4.7 4.3 4.6 5.1 5.4 5.4 5.5 5.5 5.4 5.4 5.4 5.4 5.5 5.5 5.8 6.2 6.4 6.6 7.0 7.2 7.3 7.3 7.3 7.4
7.2 6.9 6.4 6.1 6.4 6.2 6.5 6.6 6.6 6.6 6.4 6.3 6.2 6.0 5.9 5.9 6.0 6.1 5.4 4.9 4.1 4.1 4.9 5.2 5.3 5.4 5.4 5.4 5.5 5.4 5.5 5.6 5.6 5.9 6.2 6.4 6.5 6.8 7.2 7.2 7.3 7.2 7.4 7.4
Wind_Speed
5 7 3 3 3 3 3 4 2 1 3 7 5 5 8 7 8 7 7 7 7 8 5 6 6 7 12 8 11 8 8 8 7 2 2 2 1 3 3 10 12 13 13 14
6 4 3 4 5 6 5 6 3 2 6 7 5 8 7 7 4 4 7 6 7 7 6 7 6 7 8 9 6 7 8 9 6 4 4 3 3 3 4 8 13 12 13 12
6 0 3 4 5 9 4 5 2 3 3 6 4 5 5 5 6 6 5 5 5 8 9 5 6 5 5 8 8 8 8 8 6 7 4 3 5 4 2 2 3 7 8 8
5 3 4 6 6 3 3 0 3 4 3 3 3 3 2 3 3 1 4 5 6 6 4 5 5 5 6 4 4 5 5 5 3 2 3 2 2 2 1 2 1 2 6 5
1 2 5 7 1 3 1 5 5 4 5 4 3 4 4 6 5 8 5 5 6 5 6 7 7 5 4 3 2 1 3 5 5 4 4 3 3 3 2 2 2 0 1 1
3 2 3 2 3 3 4 5 8 5 3 2 1 4 4 6 6 5 4 5 6 6 3 3 5 8 3 2 3 2 3 3 4 3 3 4 5 5 3 2 2 2 2 3
6 4 5 3 3 3 6 5 3 3 3 4 3 2 6 4 5 9 9 8 7 7 6 5 6 6 7 8 3 3 5 3 3 4 5 5 5 5 5 4 3 3 3 3
4 4 3 5 2 4 3 5 4 4 3 3 3 4 4 4 7 9 8 7 6 5 4 2 2 3 2 5 4 4 5 4 4 4 4 4 5 2 4 4 3 4 3 4
4 0 2 2 2 3 2 3 3 6 1 2 2 4 4 6 5 6 8 7 8 5 4 5 5 5 5 5 4 4 4 4 3 3 3 3 4 5 5 5 4 3 4 3
5 4 2 2 2 5 2 5 3 3 2 3 3 4 4 5 7 7 9 8 6 6 7 6 6 5 4 4 2 4 4 5 5 4 4 5 4 4 5 4 6 6 6 6
3 4 4 1 3 3 2 2 6 4 3 4 1 5 5 11 11 13 8 7 8 7 7 6 5 4 4 4 4 3 4 3 4 3 4 6 6 6 5 5 6 6 6 7
1 5 2 2 2 2 2 3 4 4 3 1 3 6 2 7 8 8 7 7 6 6 6 5 4 4 4 3 2 2 1 3 4 4 5 5 5 5 5 6 6 7 7 8
5 2 3 6 5 4 2 3 4 5 3 5 5 5 3 4 6 4 8 7 7 6 5 3 3 3 2 3 4 4 4 3 4 5 4 3 3 3 5 6 6 6 6 6
6 3 5 7 4 3 4 4 4 5 3 4 6 4 3 3 5 6 7 7 7 6 5 2 2 3 4 4 4 5 4 4 3 2 1 3 3 4 4 5 6 6 6 5
3 4 2 2 3 2 2 4 6 7 5 6 4 7 6 9 8 7 7 7 6 5 4 3 2 3 4 4 4 3 2 2 2 3 1 2 3 4 5 6 6 7 7 6
3 2 1 2 3 5 3 6 7 5 3 7 4 8 6 4 7 7 8 8 6 5 5 4 2 4 5 4 3 1 3 4 2 3 3 2 3 5 6 6 7 7 7 7
3 5 3 4 4 5 6 9 9 5 5 7 6 8 6 4 8 10 9 8 7 6 5 4 6 6 4 2 1 3 5 4 4 2 2 4 5 6 6 6 6 5 5 5
5 4 3 2 3 2 6 2 5 8 5 7 2 4 10 6 3 6 5 7 7 7 6 6 5 3 2 1 3 4 4 4 2 1 3 4 5 6 5 5 5 6 3 2
3 5 3 3 3 6 5 5 6 7 7 8 7 4 5 5 4 3 7 6 7 6 5 5 4 3 2 3 4 3 4 3 3 3 4 5 5 5 6 6 6 6 4 3
5 6 4 3 4 6 6 3 3 3 5 5 7 8 8 6 3 6 9 6 5 5 5 5 4 2 1 2 2 3 4 3 4 4 5 5 4 5 6 6 5 5 3 2
3 3 4 2 3 8 7 3 2 5 7 5 8 7 9 6 5 3 8 6 6 6 7 6 3 1 1 3 3 3 2 4 4 5 5 4 5 5 6 6 5 3 1 1
7 6 4 3 2 7 6 3 7 6 2 5 7 8 13 4 7 6 7 7 6 6 6 5 3 0 2 3 2 3 3 4 5 5 5 4 3 3 4 6 3 1 2 2
2 6 5 8 6 5 6 4 3 3 4 5 7 5 8 7 6 7 7 8 6 6 4 3 2 1 3 4 2 4 4 6 6 5 6 5 3 3 4 4 1 1 1 1
4 4 2 2 4 7 8 5 5 5 5 4 4 6 8 9 8 7 8 7 5 5 3 1 1 2 4 3 4 4 5 6 5 5 5 6 3 3 4 3 2 1 1 1
4 4 4 5 8 4 9 8 6 5 4 5 5 4 6 8 7 9 6 5 4 3 1 0 1 3 4 4 5 5 5 5 5 3 3 6 3 4 4 3 2 2 3 4
5 6 4 6 6 3 6 4 4 7 6 7 7 7 8 11 9 5 5 4 4 2 0 2 3 3 5 5 5 6 5 5 5 5 4 4 3 3 3 3 3 6 6 9
Wind_Direction
1 72 119 219 191 180 147 134 131 264 354 81 62 40 8 20 69 93 90 94 91 72 37 54 53 78 89 79 97 100 111 141 153 165 174 111 72 82 66 86 82 74 72 63
35 86 221 119 100 102 79 98 68 48 6 89 90 50 34 33 52 90 113 101 103 98 64 57 52 56 85 106 110 116 137 154 165 161 171 164 148 98 95 80 70 72 71 59
120 136 110 92 56 73 43 107 126 154 85 65 108 35 35 23 61 85 66 112 113 136 131 125 99 84 108 120 134 138 147 143 144 134 116 77 75 77 80 46 48 49 66 61
79 348 105 66 71 94 107 139 109 84 88 163 37 242 93 85 54 75 142 141 140 149 118 117 122 124 133 117 91 106 125 124 111 119 70 109 151 148 123 121 117 80 53 53
264 61 76 67 90 75 135 59 59 85 81 81 11 83 276 134 194 206 199 174 192 176 179 157 162 128 48 59 67 22 71 65 41 29 68 84 81 90 101 82 85 48 20 20
59 33 59 97 61 56 118 57 38 43 67 42 269 145 234 196 193 160 184 205 195 188 198 205 136 107 85 12 78 94 88 51 57 65 66 108 122 117 116 189 218 236 241 250
13 355 335 48 87 55 72 65 5 6 7 219 317 119 249 237 180 170 181 193 199 190 189 200 132 144 163 158 176 141 119 105 91 83 77 98 136 169 193 216 234 249 265 262
127 341 11 344 81 162 69 138 153 216 196 247 349 245 250 272 202 160 171 188 173 185 205 190 165 149 180 141 147 132 139 134 104 101 137 180 189 199 229 236 239 257 250 260
133 314 327 71 63 110 182 55 156 107 345 55 256 292 323 44 104 138 159 168 201 192 181 152 141 151 181 116 105 156 131 97 130 170 198 234 244 242 254 277 274 275 276 282
192 108 25 342 91 45 119 146 68 11 128 274 296 268 230 195 190 176 184 190 160 150 148 150 150 142 109 104 115 100 130 165 196 208 225 237 267 303 295 297 283 286 284 281
117 100 282 29 39 163 27 63 53 104 111 160 283 262 222 197 193 190 187 180 169 162 152 124 93 71 71 58 41 101 149 176 224 273 336 345 327 327 329 325 313 301 302 275
55 125 122 203 266 237 179 146 134 112 211 78 144 274 331 251 206 165 183 165 139 130 119 98 74 63 56 44 41 108 326 327 3 338 347 345 348 354 336 308 297 294 283 281
178 26 64 353 351 343 180 119 100 107 86 196 137 261 4 52 99 130 141 123 121 122 113 101 91 91 50 43 58 53 37 60 36 31 18 7 19 10 348 328 318 317 301 289
91 104 156 186 204 171 174 169 155 125 124 184 225 266 259 210 152 131 127 130 135 140 139 125 78 59 31 51 57 77 59 44 20 336 15 46 4 338 317 318 323 313 304 296
93 131 125 78 6 335 249 195 179 191 190 176 242 214 238 212 190 167 146 142 149 157 165 182 72 31 46 74 91 72 48 339 305 312 25 318 320 330 335 332 322 312 313 293
16 160 127 200 357 18 287 260 230 220 195 263 265 273 204 153 121 152 165 164 175 186 189 111 102 108 120 115 96 15 296 302 310 269 272 305 343 347 326 317 318 324 323 301
82 126 102 255 8 350 329 228 206 197 189 163 202 234 151 171 181 179 176 182 186 194 174 166 149 144 142 152 210 282 288 301 308 294 343 350 340 319 311 316 319 325 336 350
120 95 73 190 23 354 237 218 213 214 213 200 210 198 191 184 131 156 181 178 199 188 178 160 157 145 173 267 292 299 320 317 313 341 347 328 315 306 306 318 316 315 310 342
60 116 83 136 201 300 293 195 172 177 266 194 200 166 139 95 77 267 200 194 190 184 170 158 150 160 192 280 301 309 311 310 347 333 306 301 310 314 316 316 322 330 329 336
56 66 110 97 146 224 242 264 165 115 297 202 159 167 147 129 157 236 186 170 161 126 129 136 143 133 305 306 307 297 304 326 308 301 295 304 324 327 319 314 303 304 292 286
46 12 159 125 227 288 244 235 164 103 236 172 172 165 154 191 198 180 139 138 138 142 137 131 117 127 294 297 306 288 311 303 292 300 307 326 340 334 311 309 298 304 296 156
168 155 198 102 76 278 172 81 168 215 221 187 181 186 192 130 127 120 110 117 109 129 130 118 108 12 313 324 291 270 287 286 307 317 314 297 310 318 313 298 263 294 141 206
236 190 181 186 215 230 230 230 262 182 191 207 186 175 155 145 158 144 133 135 148 145 128 133 135 336 334 336 310 312 303 317 306 302 288 261 259 292 295 293 283 271 303 262
245 163 199 87 261 237 241 248 236 204 217 194 181 152 156 157 144 142 137 139 138 137 152 129 40 337 319 342 355 306 307 305 297 292 303 295 255 278 298 289 267 247 210 264
205 139 182 262 279 285 268 237 237 213 184 164 138 129 126 127 133 134 115 127 130 151 112 355 321 320 304 307 313 311 304 311 293 282 296 300 255 257 270 269 248 219 252 208
187 191 167 231 237 204 251 311 190 191 191 155 131 106 102 115 105 110 128 132 170 162 330 325 321 294 292 301 295 291 285 288 271 277 278 279 253 254 244 247 258 240 238 259